Date String (YYYY-MM-DD hh:mm:ss) UTC,Instrument flags,absolute air pressure of the measurement (hPa),sample flow rate (lpm),inlet stack bypass flow (lpm),air temperature of the measurement (°C),ambient temperature measured by the external sensor (°C),aerosol sample conditioner tube jacket temperature (°C),OPC LED temperature (°C),internal box temperature (°C),relative humidity of the measurement (%),span deviation,mass concentration of particles derived from Lorenz-Mie calculation of OPC scattering (μg/m³),mass concentration of particles derived from Lorenz-Mie calculation of OPC scattering (μg/m³),mass concentration of particles derived from Lorenz-Mie calculation of OPC scattering (μg/m³)
DateTimeUTC,F1_M11,P_M11,Q1_M11,Q2_M11,T1_M11,T2_M11,T3_M11,T4_M11,T5_M11,U1_M11,ZSPAN_M11,X0_M11,X2_M11,X1_M11
2024-04-23 04:00:00,SystemResetWarning,0824.4,5.00,000.00,025.4,024.7,000.0,033.6,027.3,016.3,0000.0,0008.45,0003.24,0002.20
2024-04-23 04:01:00,SystemResetWarning,0824.4,5.00,000.00,025.4,024.7,000.0,033.7,027.3,016.2,0000.0,0008.27,0003.25,0002.21
2024-04-23 04:02:00,SystemResetWarning,0824.4,5.00,000.00,025.5,024.8,000.0,033.7,027.3,016.1,0000.0,0008.17,0003.25,0002.20
2024-04-23 04:03:00,SystemResetWarning,0824.4,5.00,000.00,025.5,024.8,000.0,033.7,027.4,016.0,0000.0,0008.21,0003.24,0002.19
2024-04-23 04:04:00,SystemResetWarning,0824.3,5.00,000.00,025.5,024.9,000.0,033.7,027.4,015.9,0000.0,0008.57,0003.27,0002.19
2024-04-23 04:05:00,SystemResetWarning,0824.3,5.00,000.00,025.6,024.9,000.0,033.8,027.4,015.9,0000.0,0008.58,0003.30,0002.21
2024-04-23 04:06:00,SystemResetWarning,0824.3,5.01,000.00,025.6,025.0,000.0,033.8,027.5,015.9,0000.0,0008.54,0003.30,0002.19
2024-04-23 04:07:00,SystemResetWarning,0824.4,5.00,000.00,025.6,025.0,000.0,033.8,027.5,015.8,0000.0,0008.87,0003.35,0002.19
2024-04-23 04:08:00,SystemResetWarning,0824.4,5.01,000.00,025.7,025.0,000.0,033.8,027.5,015.8,0000.0,0008.65,0003.34,0002.19
2024-04-23 04:09:00,SystemResetWarning,0824.4,5.00,000.00,025.7,025.0,000.0,033.9,027.5,015.8,0000.0,0008.67,0003.36,0002.19
2024-04-23 04:10:00,SystemResetWarning,0824.4,4.99,000.00,025.7,025.1,000.0,033.9,027.6,015.7,0000.0,0008.29,0003.41,0002.19
2024-04-23 04:11:00,SystemResetWarning,0824.4,4.99,000.00,025.7,025.1,000.0,033.9,027.6,015.8,0000.0,0008.27,0003.43,0002.21
2024-04-23 04:12:00,SystemResetWarning,0824.5,5.00,000.00,025.8,025.1,000.0,033.9,027.6,015.7,0000.0,0008.91,0003.40,0002.21
2024-04-23 04:13:00,SystemResetWarning,0824.5,5.01,000.00,025.8,025.1,000.0,034.0,027.6,015.8,0000.0,0008.63,0003.38,0002.21
2024-04-23 04:14:00,SystemResetWarning,0824.5,5.00,000.00,025.8,025.2,000.0,034.0,027.6,015.8,0000.0,0008.39,0003.34,0002.20
2024-04-23 04:15:00,SystemResetWarning,0824.5,4.98,000.00,025.8,025.2,000.0,034.0,027.7,015.8,0000.0,0007.95,0003.33,0002.19
2024-04-23 04:16:00,SystemResetWarning,0824.6,5.00,000.00,025.9,025.2,000.0,034.1,027.7,015.7,0000.0,0008.06,0003.28,0002.17
2024-04-23 04:17:00,SystemResetWarning,0824.6,5.01,000.00,025.9,025.2,000.0,034.1,027.7,015.6,0000.0,0008.21,0003.32,0002.17
2024-04-23 04:18:00,SystemResetWarning,0824.6,5.01,000.00,025.9,025.2,000.0,034.1,027.7,015.6,0000.0,0008.22,0003.29,0002.16
2024-04-23 04:19:00,SystemResetWarning,0824.6,5.01,000.00,025.9,025.3,000.0,034.1,027.8,015.6,0000.0,0008.72,0003.29,0002.17
2024-04-23 04:20:00,SystemResetWarning,0824.6,4.99,000.00,025.9,025.3,000.0,034.2,027.8,015.7,0000.0,0008.83,0003.30,0002.15
2024-04-23 04:21:00,SystemResetWarning,0824.5,4.99,000.00,026.0,025.3,000.0,034.2,027.8,015.7,0000.0,0008.91,0003.25,0002.13
2024-04-23 04:22:00,SystemResetWarning,0824.5,4.99,000.00,026.0,025.3,000.0,034.2,027.8,015.7,0000.0,0009.36,0003.22,0002.12
2024-04-23 04:23:00,SystemResetWarning,0824.5,5.01,000.00,026.0,025.2,000.0,034.2,027.7,015.6,0000.0,0008.80,0003.19,0002.11
2024-04-23 04:24:00,SystemResetWarning,0824.4,5.00,000.00,025.7,023.2,000.0,034.3,026.5,015.8,0000.0,0008.59,0003.20,0002.11
2024-04-23 04:25:00,SystemResetWarning,0824.4,5.02,000.00,025.2,022.0,000.0,034.3,025.7,016.4,0000.0,0008.76,0003.23,0002.13
2024-04-23 04:26:00,SystemResetWarning,0824.4,5.00,000.00,025.0,022.1,000.0,034.1,025.7,016.6,0000.0,0008.83,0003.24,0002.14
2024-04-23 04:27:00,SystemResetWarning,0824.4,5.00,000.00,025.0,022.5,000.0,034.0,026.1,016.6,0000.0,0008.66,0003.27,0002.16
2024-04-23 04:28:00,SystemResetWarning,0824.4,5.00,000.00,025.0,022.8,000.0,033.9,026.3,016.6,0000.0,0008.79,0003.28,0002.17
2024-04-23 04:29:00,SystemResetWarning,0824.4,5.00,000.00,025.0,023.1,000.0,033.8,026.5,016.6,0000.0,0009.08,0003.30,0002.17
2024-04-23 04:30:00,SystemResetWarning,0824.4,5.00,000.00,025.0,023.4,000.0,033.7,026.7,016.6,0000.0,0008.74,0003.32,0002.16
2024-04-23 04:31:00,SystemResetWarning,0824.4,5.01,000.00,025.1,023.7,000.0,033.7,026.8,016.7,0000.0,0008.52,0003.30,0002.19
2024-04-23 04:32:00,SystemResetWarning,0824.4,5.00,000.00,025.1,023.9,000.0,033.7,026.8,016.6,0000.0,0008.91,0003.35,0002.20
2024-04-23 04:33:00,SystemResetWarning,0824.4,4.99,000.00,025.1,024.0,000.0,033.7,026.9,016.5,0000.0,0009.08,0003.33,0002.20
2024-04-23 04:34:00,SystemResetWarning,0824.4,5.00,000.00,025.2,024.2,000.0,033.7,027.0,016.5,0000.0,0008.82,0003.36,0002.21
2024-04-23 04:35:00,SystemResetWarning,0824.5,5.00,000.00,025.2,024.3,000.0,033.7,027.1,016.3,0000.0,0008.99,0003.40,0002.23
2024-04-23 04:36:00,SystemResetWarning,0824.4,5.00,000.00,025.3,024.4,000.0,033.7,027.1,016.1,0000.0,0009.06,0003.44,0002.25
2024-04-23 04:37:00,SystemResetWarning,0824.4,5.01,000.00,025.3,024.5,000.0,033.7,027.1,016.1,0000.0,0009.32,0003.48,0002.25
2024-04-23 04:38:00,SystemResetWarning,0824.4,5.00,000.00,025.3,024.6,000.0,033.7,027.2,016.1,0000.0,0009.34,0003.48,0002.24
2024-04-23 04:39:00,SystemResetWarning,0824.4,5.00,000.00,025.4,024.6,000.0,033.7,027.2,016.0,0000.0,0009.02,0003.44,0002.22
2024-04-23 04:40:00,SystemResetWarning,0824.4,5.01,000.00,025.4,024.7,000.0,033.7,027.3,016.0,0000.0,0009.77,0003.37,0002.21
2024-04-23 04:41:00,SystemResetWarning,0824.4,5.01,000.00,025.4,024.8,000.0,033.7,027.3,016.0,0000.0,0009.64,0003.36,0002.23
2024-04-23 04:42:00,SystemResetWarning,0824.4,4.99,000.00,025.5,024.8,000.0,033.8,027.4,016.1,0000.0,0010.01,0003.38,0002.22
2024-04-23 04:43:00,SystemResetWarning,0824.4,4.99,000.00,025.5,024.8,000.0,033.8,027.4,016.0,0000.0,0009.77,0003.38,0002.21
2024-04-23 04:44:00,SystemResetWarning,0824.4,5.00,000.00,025.6,024.9,000.0,033.8,027.4,015.6,0000.0,0009.48,0003.45,0002.23
2024-04-23 04:45:00,SystemResetWarning,0824.4,5.00,000.00,025.6,025.0,000.0,033.8,027.5,015.5,0000.0,0009.73,0003.44,0002.22
2024-04-23 04:46:00,SystemResetWarning,0824.3,5.00,000.00,025.6,025.0,000.0,033.9,027.5,015.4,0000.0,0010.00,0003.41,0002.21
2024-04-23 04:47:00,SystemResetWarning,0824.4,5.00,000.00,025.7,025.1,000.0,033.9,027.5,015.2,0000.0,0010.26,0003.38,0002.18
2024-04-23 04:48:00,SystemResetWarning,0824.4,5.00,000.00,025.7,025.1,000.0,033.9,027.5,015.5,0000.0,0010.54,0003.35,0002.17
2024-04-23 04:49:00,SystemResetWarning,0824.4,5.00,000.00,025.7,025.1,000.0,033.9,027.6,016.2,0000.0,0010.97,0003.37,0002.16
2024-04-23 04:50:00,SystemResetWarning,0824.3,5.00,000.00,025.7,025.1,000.0,034.0,027.6,016.7,0000.0,0011.42,0003.43,0002.17
2024-04-23 04:51:00,SystemResetWarning,0824.4,5.00,000.00,025.8,025.1,000.0,034.0,027.6,016.8,0000.0,0010.16,0003.46,0002.18
2024-04-23 04:52:00,SystemResetWarning,0824.4,5.00,000.00,025.8,025.2,000.0,034.0,027.7,016.6,0000.0,0010.17,0003.46,0002.17
2024-04-23 04:53:00,SystemResetWarning,0824.4,5.01,000.00,025.8,025.2,000.0,034.0,027.7,017.5,0000.0,0010.18,0003.42,0002.17
2024-04-23 04:54:00,SystemResetWarning,0824.4,5.01,000.00,025.9,025.2,000.0,034.1,027.7,016.8,0000.0,0009.81,0003.35,0002.17
2024-04-23 04:55:00,SystemResetWarning,0824.4,5.00,000.00,025.9,025.3,000.0,034.1,027.7,016.5,0000.0,0009.70,0003.30,0002.15
2024-04-23 04:56:00,SystemResetWarning,0824.3,4.99,000.00,025.9,025.3,000.0,034.1,027.8,016.0,0000.0,0009.53,0003.29,0002.16
2024-04-23 04:57:00,SystemResetWarning,0824.4,4.99,000.00,025.9,025.3,000.0,034.2,027.8,015.9,0000.0,0009.53,0003.28,0002.15
2024-04-23 04:58:00,SystemResetWarning,0824.4,5.00,000.00,026.0,025.3,000.0,034.2,027.8,015.2,0000.0,0009.35,0003.26,0002.15
2024-04-23 04:59:00,SystemResetWarning,0824.4,5.01,000.00,026.0,025.3,000.0,034.2,027.8,015.2,0000.0,0008.87,0003.26,0002.16
